[[{"header":{"parameterUnit":"m.s-1","parameterCategory":1,"la1":30.2991,"la2":30.254,"lo1":-89.0895,"lo2":-89.0444,"dy":0.0017,"dx":0.0017,"nx":28,"ny":28,"refTime":"2024-08-25T09:00:00:Z","depth":0,"parameterNumber":2,"parameterNumberName":"U-component_of_WINDS"},"data":[0,0,0,0,0,0,0,0,0,0,0,0,0,0,0,0,0,0,0,0,0,0,0,0,0,0,0,0,0,0,0,0,0,0,0,0,0,0,0,0,0,0,0,0,0,0,0,0,0,0,0,0,0,0,0,0,0,0,-3.4322,-3.4322,0,-3.4324,-3.4324,-3.4324,-3.4201,-3.4198,-3.4195,-3.4192,-3.4193,-3.4196,-3.42,0,0,0,0,0,0,0,0,0,0,0,0,0,-3.4213,-3.4216,-3.4322,-3.4322,-3.4322,-3.4324,-3.4324,-3.4324,-3.4202,-3.4198,-3.4194,-3.419,-3.4192,-3.4196,-3.42,0,0,0,0,0,0,0,0,0,0,0,0,0,-3.4243,-3.4217,-3.4322,-3.4261,-3.4256,-3.4324,-3.4324,-3.4324,-3.4203,-3.4198,-3.4193,-3.4188,-3.4191,-3.4196,-3.42,-3.4326,0,0,-3.4214,-3.4216,0,0,0,0,0,0,0,0,-3.4241,-3.4247,-3.427,-3.4265,-3.426,-3.4257,-3.4286,-3.4325,-3.4204,-3.4223,-3.4192,-3.4186,-3.4219,-3.4221,-3.4232,-3.4326,-3.4326,-3.4215,-3.4218,-3.422,-3.4221,0,0,0,0,0,0,0,-3.4239,-3.4246,-3.4322,-3.4271,-3.4264,-3.4234,-3.4233,-3.4293,-3.4248,-3.4221,-3.4212,-3.4214,-3.4215,-3.4228,-3.4231,-3.4326,-3.4215,-3.4219,-3.4222,-3.4223,-3.4525,-3.453,0,0,0,0,0,0,-3.4245,-3.4245,-3.4322,-3.4322,-3.4238,-3.424,-3.4239,-3.4263,-3.4247,-3.424,-3.4218,-3.4208,-3.4222,-3.4226,-3.423,-3.4377,-3.422,-3.4224,-3.4226,-3.452,-3.4527,-3.4532,0,0,0,0,0,0,-3.4244,-3.4253,-3.4322,-3.4281,-3.4288,-3.4247,-3.4275,-3.4266,-3.4278,-3.4245,-3.4236,-3.4239,-3.4218,-3.4224,-3.4303,-3.4375,-3.4226,-3.423,-3.4514,-3.4522,-3.4529,-3.4671,0,0,0,0,0,0,-3.4241,-3.4254,-3.43,-3.4283,-3.4291,-3.4395,-3.428,-3.4269,-3.4286,-3.4273,-3.4262,-3.4256,-3.4215,-3.4297,-3.4308,-3.4379,-3.4234,-3.4507,-3.4518,-3.4527,-3.4659,-3.4682,-3.4702,0,0,0,0,0,-3.4238,-3.434,-3.4303,-3.4313,-3.4348,-3.44,-3.4404,-3.4354,-3.4293,-3.434,-3.4319,-3.4256,-3.4366,-3.4307,-3.4318,-3.4391,-3.4502,-3.4515,-3.4526,-3.465,-3.4678,-3.4701,0,0,0,0,0,0,-3.4365,-3.4336,-3.4296,-3.4395,-3.4401,-3.4379,-3.4436,-3.4386,-3.4409,-3.4396,-3.4334,-3.4333,-3.4422,-3.4414,-3.4349,-3.4512,-3.4423,-3.4438,-3.4513,-3.454,-3.4561,-3.456,-3.4238,0,0,0,0,0,-3.4406,-3.445,-3.4422,-3.4512,-3.4518,-3.4477,-3.4498,-3.446,-3.4463,-3.4464,-3.4449,-3.4455,-3.449,-3.4515,-3.4546,-3.4659,-3.4654,-3.4715,-3.4736,-3.4754,-3.4766,-3.4826,-3.4852,-3.4571,-3.4571,-3.4571,0,0,-3.4488,-3.4478,-3.4509,-3.4538,-3.4538,-3.4585,-3.448,-3.4534,-3.4568,-3.4472,-3.4546,-3.4536,-3.4538,-3.4635,-3.4677,-3.4632,-3.4844,-3.4769,-3.4783,-3.4786,-3.4841,-3.4867,-3.4891,-3.4579,-3.4578,-3.4576,0,0,-3.4662,-3.4659,-3.4734,-3.4737,-3.4739,-3.4712,-3.473,-3.4716,-3.4706,-3.478,-3.4709,-3.475,-3.4812,-3.4817,-3.4828,-3.5008,-3.4951,-3.502,-3.513,-3.5189,-3.5211,-3.5231,-3.5294,-3.5318,-3.5033,-3.5033,-3.5034,0,-3.4764,-3.4832,-3.478,-3.4839,-3.4854,-3.4771,-3.4847,-3.4852,-3.4864,-3.4877,-3.4826,-3.4904,-3.49,-3.4997,-3.5041,-3.5053,-3.5072,-3.5019,-3.5213,-3.5231,-3.5249,-3.5309,-3.5333,-3.5042,-3.5041,-3.504,-3.5039,0,-3.4958,-3.5007,-3.5067,-3.5082,-3.5104,-3.5172,-3.513,-3.5159,-3.512,-3.5099,-3.5176,-3.5168,-3.5197,-3.5217,-3.518,-3.531,-3.5282,-3.5223,-3.5132,-3.5285,-3.534,-3.5363,-3.5053,-3.505,-3.5048,-3.5046,0,0,-3.5209,-3.5196,-3.5219,-3.5225,-3.5222,-3.5258,-3.5324,-3.5352,-3.5378,-3.539,-3.5443,-3.5499,-3.5446,-3.5458,-3.5421,-3.5473,-3.5616,-3.5407,-3.5406,-3.5446,-3.5759,-3.5802,-3.5829,-3.5579,-3.5584,-3.5587,-3.5758,0,-3.5378,-3.5486,-3.5442,-3.5555,-3.56,-3.5524,-3.558,-3.5585,-3.5568,-3.5604,-3.5584,-3.5625,-3.5551,-3.5559,-3.5607,-3.5588,-3.5677,-3.5575,-3.5627,-3.563,-3.5627,-3.5858,-3.5903,-3.6065,-3.578,-3.5783,-3.5786,0,-3.5587,-3.5609,-3.5727,-3.5718,-3.5735,-3.5786,-3.5809,-3.5845,-3.5849,-3.5833,-3.5849,-3.5801,-3.5864,-3.5776,-3.5863,-3.5794,-3.5813,-3.5808,-3.5813,-3.5814,-3.5716,-3.5865,-3.6116,-3.614,-3.582,-3.5817,-3.5815,0,-3.5758,-3.5817,-3.5895,-3.5903,-3.5894,-3.5932,-3.5931,-3.593,-3.5951,-3.5972,-3.5985,-3.6013,-3.6028,-3.6052,-3.6013,-3.5952,-3.6105,-3.6013,-3.6093,-3.6095,-3.6127,-3.6125,-3.6384,-3.6143,-3.6142,-3.6142,-3.6141,0,-3.595,-3.6024,-3.5972,-3.602,-3.6102,-3.6052,-3.6134,-3.6124,-3.6126,-3.6171,-3.6107,-3.6151,-3.6097,-3.6136,-3.6107,-3.6183,-3.6191,-3.618,-3.617,-3.6184,-3.6186,-3.6195,-3.6182,-3.6148,-3.6147,-3.6146,-3.6145,0,-3.6153,-3.6121,-3.6201,-3.6187,-3.6186,-3.6247,-3.6235,-3.6279,-3.6259,-3.6317,-3.6328,-3.6296,-3.6338,-3.6303,-3.6344,-3.6324,-3.6426,-3.6401,-3.6424,-3.6417,-3.6498,-3.6491,-3.677,-3.6804,-3.6543,-3.6545,-3.6548,0,-3.6276,-3.6332,-3.6325,-3.6351,-3.6354,-3.6396,-3.6417,-3.6371,-3.6396,-3.6407,-3.645,-3.6488,-3.6515,-3.6587,-3.6567,-3.6599,-3.6574,-3.667,-3.6578,-3.6591,-3.6575,-3.6571,-3.6577,-3.6688,-3.6691,-3.6694,-3.6696,0,-3.6498,-3.648,-3.6513,-3.6542,-3.6569,-3.6589,-3.6604,-3.6629,-3.6581,-3.6613,-3.6656,-3.6678,-3.6721,-3.6759,-3.6785,-3.6783,-3.6732,-3.6725,-3.6745,-3.6759,-3.677,-3.6765,-3.6473,-3.6718,-3.6716,-3.6714,-3.6713,-3.6712,-3.6664,-3.6711,-3.6714,-3.6753,-3.676,-3.6776,-3.6817,-3.6803,-3.6838,-3.687,-3.6841,-3.6894,-3.6899,-3.6928,-3.6933,-3.6974,-3.6934,-3.6963,-3.697,-3.6978,-3.6989,-3.6765,-3.6978,-3.6978,-3.6977,-3.6977,-3.6976,0,-3.6883,-3.6881,-3.6918,-3.6942,-3.6973,-3.6924,-3.6939,-3.6968,-3.7015,-3.7024,-3.7053,-3.7104,-3.7142,-3.7127,-3.716,-3.7195,-3.7173,-3.7205,-3.7201,-3.7202,-3.7023,-3.7002,-3.7223,-3.7223,-3.7223,-3.7223,-3.7223,-3.7223,-3.7,-3.7076,-3.7059,-3.7139,-3.7137,-3.7188,-3.7201,-3.7216,-3.7223,-3.7283,-3.7314,-3.7304,-3.7304,-3.7337,-3.7369,-3.7364,-3.7379,-3.742,-3.7406,-3.7239,-3.7214,-3.7191,-3.7171,-3.7424,-3.7424,-3.7581,-3.7583,-3.7584]},{"header":{"parameterUnit":"m.s-1","parameterCategory":1,"la1":30.2991,"la2":30.254,"lo1":-89.0895,"lo2":-89.0444,"dy":0.0017,"dx":0.0017,"nx":28,"ny":28,"refTime":"2024-08-25T09:00:00:Z","depth":0,"parameterNumber":3,"parameterNumberName":"V-component_of_WINDS"},"data":[0,0,0,0,0,0,0,0,0,0,0,0,0,0,0,0,0,0,0,0,0,0,0,0,0,0,0,0,0,0,0,0,0,0,0,0,0,0,0,0,0,0,0,0,0,0,0,0,0,0,0,0,0,0,0,0,0,0,2.7428,2.7428,0,2.7429,2.7429,2.7429,2.7446,2.7447,2.7447,2.7448,2.7445,2.7444,2.7444,0,0,0,0,0,0,0,0,0,0,0,0,0,2.744,2.7439,2.7428,2.7428,2.7428,2.7429,2.7429,2.7429,2.7446,2.7447,2.7447,2.7448,2.7445,2.7444,2.7444,0,0,0,0,0,0,0,0,0,0,0,0,0,2.7437,2.7439,2.7428,2.7437,2.7438,2.7429,2.7429,2.7429,2.7446,2.7447,2.7447,2.7448,2.7445,2.7444,2.7443,2.7425,0,0,2.7441,2.7441,0,0,0,0,0,0,0,0,2.7437,2.7436,2.7436,2.7436,2.7437,2.7438,2.7432,2.7427,2.7446,2.7443,2.7448,2.7448,2.7442,2.7441,2.744,2.7425,2.7425,2.7441,2.7441,2.744,2.744,0,0,0,0,0,0,0,2.7437,2.7436,2.7428,2.7436,2.7437,2.744,2.744,2.7431,2.7438,2.7443,2.7444,2.7444,2.7442,2.744,2.744,2.7425,2.7441,2.744,2.744,2.744,2.7395,2.7394,0,0,0,0,0,0,2.7436,2.7436,2.7428,2.7428,2.7439,2.7439,2.744,2.7437,2.7438,2.7439,2.7444,2.7445,2.7441,2.7441,2.744,2.7418,2.744,2.744,2.7439,2.7395,2.7394,2.7394,0,0,0,0,0,0,2.7437,2.7435,2.7428,2.7433,2.7432,2.7438,2.7435,2.7437,2.7435,2.7439,2.744,2.7441,2.7442,2.7441,2.7429,2.7418,2.7439,2.7439,2.7396,2.7395,2.7394,2.7374,0,0,0,0,0,0,2.7437,2.7435,2.7429,2.7432,2.7432,2.7418,2.7435,2.7436,2.7434,2.7436,2.7436,2.7437,2.7442,2.743,2.7428,2.7417,2.7438,2.7397,2.7396,2.7394,2.7376,2.7372,2.737,0,0,0,0,0,2.7437,2.7422,2.7428,2.7427,2.7424,2.7417,2.7417,2.7424,2.7433,2.7426,2.7429,2.7437,2.742,2.7428,2.7427,2.7415,2.7398,2.7396,2.7395,2.7377,2.7373,2.737,0,0,0,0,0,0,2.7416,2.7423,2.743,2.7416,2.7416,2.742,2.7412,2.742,2.7416,2.7418,2.7426,2.7426,2.7412,2.7413,2.7422,2.7398,2.741,2.7408,2.7398,2.7394,2.7391,2.739,2.7437,0,0,0,0,0,2.741,2.7405,2.7411,2.7398,2.7398,2.7405,2.7402,2.7408,2.7408,2.7408,2.7409,2.7408,2.7403,2.7398,2.7394,2.7376,2.7376,2.7368,2.7365,2.7362,2.736,2.7351,2.7347,2.7388,2.7388,2.7388,0,0,2.7397,2.74,2.7396,2.7394,2.7395,2.7388,2.7405,2.7397,2.7392,2.7406,2.7395,2.7397,2.7396,2.7381,2.7375,2.7381,2.7349,2.736,2.7358,2.7357,2.7349,2.7345,2.7341,2.7387,2.7387,2.7388,0,0,2.7369,2.7372,2.7361,2.7362,2.7364,2.7369,2.7366,2.737,2.7372,2.7361,2.7371,2.7366,2.7356,2.7355,2.7353,2.7327,2.7334,2.7325,2.7308,2.7299,2.7296,2.7293,2.7283,2.728,2.7323,2.7323,2.7323,0,2.7352,2.7344,2.7355,2.7347,2.7345,2.736,2.7349,2.7349,2.7348,2.7346,2.7354,2.7343,2.7343,2.7328,2.7322,2.732,2.7317,2.7324,2.7296,2.7293,2.7291,2.7281,2.7277,2.7322,2.7322,2.7322,2.7322,0,2.7323,2.7317,2.7309,2.7309,2.7307,2.7297,2.7306,2.7302,2.7309,2.7313,2.7302,2.7303,2.7299,2.7296,2.7302,2.7282,2.7286,2.7295,2.7307,2.7285,2.7277,2.7273,2.732,2.7321,2.7321,2.7321,0,0,2.728,2.7288,2.7285,2.7285,2.7289,2.7284,2.7275,2.7272,2.7269,2.7268,2.726,2.7253,2.7261,2.7259,2.7265,2.7258,2.7236,2.7267,2.7267,2.7261,2.7214,2.7206,2.7202,2.7242,2.7241,2.7241,2.7214,0,2.7253,2.724,2.7249,2.7234,2.7228,2.7242,2.7235,2.7236,2.724,2.7235,2.7239,2.7233,2.7245,2.7244,2.7237,2.724,2.7227,2.7243,2.7233,2.7233,2.7232,2.7198,2.7189,2.7164,2.7211,2.721,2.721,0,2.7219,2.7219,2.7203,2.7208,2.7206,2.7199,2.7198,2.7193,2.7195,2.7198,2.7197,2.7205,2.7196,2.721,2.7198,2.7208,2.7205,2.7207,2.7206,2.7204,2.7219,2.7193,2.7156,2.7151,2.7204,2.7205,2.7205,0,2.7189,2.7184,2.7174,2.7174,2.718,2.7175,2.7177,2.7179,2.7177,2.7176,2.7174,2.7171,2.7169,2.7167,2.7174,2.7183,2.716,2.7175,2.7161,2.7161,2.7154,2.7154,2.7114,2.7155,2.7155,2.7155,2.7155,0,2.7157,2.7146,2.716,2.7154,2.7142,2.7154,2.7142,2.7145,2.7148,2.7141,2.7154,2.7148,2.7158,2.7153,2.7159,2.7147,2.7146,2.7148,2.7149,2.7146,2.7146,2.7143,2.7144,2.7154,2.7154,2.7154,2.7155,0,2.712,2.7129,2.7119,2.7126,2.7128,2.7119,2.7124,2.7118,2.7124,2.7116,2.7115,2.7123,2.7118,2.7125,2.712,2.7124,2.7108,2.7113,2.7108,2.7109,2.7095,2.7095,2.705,2.7044,2.709,2.709,2.7089,0,2.7098,2.709,2.7097,2.7094,2.7096,2.7092,2.709,2.7101,2.7099,2.7101,2.7094,2.7091,2.7088,2.7078,2.7083,2.708,2.7083,2.7068,2.7083,2.708,2.7082,2.7082,2.708,2.7064,2.7064,2.7063,2.7063,0,2.7058,2.7063,2.7061,2.706,2.7058,2.7058,2.7058,2.7055,2.7067,2.7064,2.7059,2.7057,2.7053,2.7049,2.7047,2.7048,2.7057,2.7059,2.7055,2.7051,2.7048,2.7048,2.7098,2.7059,2.7059,2.706,2.706,2.706,2.7027,2.702,2.7025,2.7022,2.7024,2.7024,2.7019,2.7025,2.7021,2.7019,2.7027,2.702,2.7022,2.7021,2.7021,2.7016,2.7023,2.7018,2.7016,2.7014,2.7012,2.705,2.7016,2.7016,2.7016,2.7016,2.7016,0,2.6986,2.699,2.6987,2.6988,2.6986,2.6997,2.6998,2.6995,2.699,2.6992,2.6989,2.6984,2.698,2.6986,2.6982,2.6977,2.6981,2.6976,2.6975,2.6975,2.7007,2.7009,2.6973,2.6973,2.6973,2.6973,2.6973,2.6973,2.6965,2.6955,2.6961,2.6952,2.6956,2.695,2.695,2.6951,2.6952,2.6946,2.6944,2.6948,2.6951,2.6948,2.6945,2.6947,2.6944,2.6937,2.694,2.6969,2.6973,2.6977,2.698,2.6937,2.6937,2.6909,2.6909,2.6909]}]]